Wind_Speed
5 5 6 6 6 5 5 5 5 5 5 5 4 4 4 3 3 4 3 3 4 4 4 5 5 6 6 7 7 8 9 10 10 11 12 13 13 14 14 15 15 16 17 17 18 18 19 19 20
6 6 6 7 6 6 5 5 5 5 5 4 4 4 4 4 3 3 3 3 3 4 4 5 5 5 6 7 8 8 9 10 11 12 13 13 14 15 15 16 16 17 17 18 18 19 20 20 21
7 7 7 7 7 6 6 5 5 5 4 4 4 4 4 4 4 3 3 3 3 4 4 5 5 6 7 8 8 9 10 11 12 13 14 14 15 15 16 17 18 18 19 19 20 20 21 21 22
9 8 8 8 7 7 6 6 5 4 4 4 4 4 4 4 4 4 4 3 4 4 4 5 6 7 8 8 9 10 11 12 13 13 14 15 16 16 17 18 18 18 19 19 20 20 21 22 22
10 10 9 9 8 8 7 7 6 5 5 5 5 5 5 5 5 5 5 4 4 4 5 6 6 7 8 9 10 11 12 13 13 14 14 15 16 16 17 17 18 18 19 19 20 20 21 22 23
12 11 11 10 10 9 8 8 7 6 6 5 5 5 5 5 5 5 5 5 5 5 5 6 7 8 9 10 11 12 13 13 14 14 15 16 16 17 17 18 18 19 19 20 20 21 22 22 23
14 13 13 12 11 11 10 9 9 8 7 7 6 6 5 6 6 6 6 6 7 7 7 8 9 10 10 11 12 13 14 14 15 15 16 17 17 18 18 19 20 20 20 21 22 22 23 23 24
16 16 15 14 13 12 11 11 11 10 10 9 8 7 7 7 7 7 7 8 8 9 9 10 10 11 11 12 13 14 15 15 16 16 17 18 18 19 19 20 21 21 22 22 23 23 24 24 24
20 19 17 15 14 14 13 13 12 12 11 11 10 9 9 9 8 9 9 9 9 10 11 11 12 12 13 13 14 15 16 16 17 17 18 19 19 20 21 21 22 22 23 23 24 24 25 25 25
22 21 18 17 16 16 15 15 14 14 13 13 12 11 11 11 10 10 10 10 11 11 12 13 13 14 15 15 16 17 17 18 18 19 19 20 21 21 22 22 23 24 24 25 25 25 26 26 27
25 23 21 20 19 18 18 17 16 16 15 15 14 13 13 12 12 12 12 12 12 13 13 14 14 15 16 17 18 19 19 19 20 20 21 21 22 22 23 24 24 25 25 26 26 27 27 27 28
27 25 24 23 22 21 20 19 19 18 17 16 16 15 15 14 14 13 13 14 14 14 15 15 15 16 17 18 19 19 20 20 21 21 22 23 23 24 24 25 25 26 26 27 28 28 28 28 29
30 28 27 26 24 23 22 22 21 20 19 18 18 17 17 16 16 15 15 16 16 16 16 16 17 18 18 19 19 20 21 21 22 22 23 24 24 25 25 26 27 27 28 29 29 30 30 30 30
32 30 29 28 27 26 25 24 23 22 21 20 20 19 19 19 18 18 18 18 18 18 18 18 19 19 19 20 20 21 22 22 23 24 24 25 25 26 27 27 28 29 29 30 31 31 31 31 31
34 33 32 30 30 28 28 26 25 24 23 23 22 21 21 21 21 20 20 20 20 19 19 20 20 21 21 21 22 22 22 23 24 25 26 26 27 27 28 28 29 30 30 31 31 32 32 32 32
37 36 34 32 31 30 30 28 27 26 26 25 24 23 23 23 23 22 22 21 21 21 21 21 22 22 22 23 23 23 24 25 26 26 27 27 28 28 29 29 30 30 31 32 32 32 32 32 33
38 37 36 35 34 33 32 30 30 28 28 26 26 26 25 25 24 24 23 23 23 23 23 23 23 23 24 24 24 24 25 26 27 27 28 28 29 29 30 30 31 31 32 32 32 32 33 33 34
39 39 38 37 36 35 34 32 31 31 30 28 28 28 27 27 26 25 25 24 24 24 24 24 25 25 25 25 25 26 26 27 28 28 29 29 29 30 30 31 32 32 32 32 33 33 34 34 35
41 41 40 39 38 38 37 34 33 33 32 30 30 29 29 28 27 27 26 26 25 25 25 25 26 26 26 26 26 27 27 28 29 29 29 30 30 30 31 32 32 32 33 33 34 34 35 35 35
42 41 40 40 40 40 39 37 35 35 34 32 31 31 30 29 29 28 27 27 27 26 26 27 27 27 27 27 27 28 29 29 29 30 30 30 30 30 31 32 33 33 34 34 35 35 36 36 36
43 41 40 40 41 41 41 39 37 36 36 34 33 32 31 30 30 29 29 28 28 28 28 28 28 28 28 28 28 29 29 30 30 30 31 31 31 31 32 33 34 34 34 35 35 36 37 37 38
43 41 41 41 42 42 42 42 38 37 37 36 34 33 33 31 31 30 30 29 29 29 29 28 28 28 28 29 29 30 30 31 31 31 31 31 32 33 33 34 34 35 35 36 36 37 38 39 39
42 41 42 42 43 44 43 44 39 38 38 37 36 35 34 33 32 31 31 30 30 30 30 29 29 29 29 30 30 30 30 31 31 31 32 32 33 33 34 35 35 35 36 37 38 38 39 40 40
43 42 42 43 43 45 43 44 42 38 38 37 36 36 35 34 33 32 32 31 31 31 30 30 30 30 30 30 30 31 31 31 31 32 32 33 33 34 35 35 36 36 37 38 38 39 40 41 41
44 42 43 44 45 46 43 44 43 38 37 37 36 36 35 34 33 33 32 32 32 31 31 31 31 31 30 30 31 30 30 31 31 32 33 33 34 34 35 36 36 37 38 38 39 40 41 41 42
44 44 44 44 45 45 43 44 41 38 36 36 35 35 35 35 34 34 34 33 33 32 31 31 31 31 31 31 31 30 31 31 32 32 33 34 34 35 36 36 37 38 39 39 40 41 42 43 43
46 46 43 44 45 45 45 42 40 38 36 35 35 35 35 35 35 35 35 34 33 33 32 32 31 31 31 31 31 31 31 32 32 33 34 35 36 36 37 37 38 39 39 40 41 42 43 44 44
46 45 45 45 45 45 45 42 39 37 36 36 36 36 36 36 36 36 36 35 34 34 33 33 32 31 31 31 31 31 32 32 33 34 35 36 37 37 38 38 39 39 40 41 42 43 44 44 44
45 46 46 46 46 45 45 43 38 36 36 36 36 36 36 36 36 36 36 35 34 34 34 33 33 32 32 32 32 32 33 33 34 35 36 36 37 38 38 39 39 40 41 42 43 43 44 45 46
47 46 46 46 46 46 45 43 38 36 36 36 36 36 36 36 36 36 35 34 34 34 34 34 33 33 33 33 33 33 34 34 35 36 37 37 38 39 39 40 40 41 42 43 44 44 45 46 47
Wind_Direction
189 187 185 184 184 185 186 190 195 202 209 216 224 228 230 230 234 238 243 250 252 254 255 256 264 270 274 278 279 280 282 285 286 286 287 288 288 288 287 286 286 286 285 285 284 283 282 282 282
198 193 190 187 184 182 186 195 204 207 212 216 219 217 218 221 225 232 242 250 254 256 259 264 269 274 278 280 282 285 286 287 288 289 289 289 289 289 288 288 288 288 287 286 286 286 285 285 284
203 200 197 193 186 185 188 196 204 208 212 212 210 214 221 227 233 240 250 257 261 266 273 277 277 279 280 283 284 287 289 290 292 292 292 291 290 290 290 291 291 291 290 289 288 288 288 287 286
206 203 202 199 193 192 196 202 211 214 212 212 213 219 227 234 241 248 257 261 268 278 283 286 286 287 287 287 289 292 294 294 295 295 295 295 293 293 293 294 294 293 293 292 292 291 290 289 289
211 208 209 208 204 204 209 215 221 218 216 221 226 231 238 245 250 254 259 265 271 280 286 290 292 293 293 290 291 293 296 296 296 297 297 298 297 297 297 297 297 296 295 295 294 293 292 292 291
217 215 214 214 213 216 218 221 224 224 224 231 238 243 246 250 254 258 263 269 275 282 288 292 294 296 296 295 295 296 297 297 297 298 299 300 300 300 299 299 299 298 297 296 296 296 295 294 293
223 222 220 219 220 221 222 224 228 231 231 235 242 247 252 256 259 262 266 272 279 286 290 293 294 294 295 297 298 298 298 297 297 297 298 299 300 300 300 300 301 300 299 298 298 297 296 296 295
226 226 225 224 225 225 225 228 231 235 237 239 243 249 255 261 263 265 271 275 280 285 291 294 294 294 295 297 299 298 298 297 297 297 298 299 299 300 299 300 300 300 300 300 299 299 298 297 296
230 230 229 230 230 229 229 230 233 237 240 242 245 249 255 261 265 268 272 277 281 286 290 293 294 294 295 296 298 299 298 298 298 298 298 299 300 300 300 300 300 300 300 300 299 299 299 299 298
232 233 232 233 234 233 233 233 234 238 241 243 246 250 255 259 264 269 273 277 282 287 290 291 292 293 295 295 296 298 298 298 298 298 298 299 300 301 301 301 300 300 300 299 299 299 299 299 298
235 235 234 234 235 236 236 237 238 240 242 244 247 251 255 259 264 268 273 277 281 286 288 290 291 292 293 295 296 297 297 297 297 297 298 300 301 301 301 300 300 300 300 299 299 298 298 298 297
237 237 237 236 237 238 238 239 240 242 243 245 248 252 255 259 263 267 272 275 279 283 286 288 290 291 293 294 296 297 298 298 298 298 299 300 300 300 300 300 300 300 301 301 300 299 299 298 298
237 238 238 238 238 239 240 240 241 243 245 246 249 252 255 258 263 267 271 274 277 280 283 286 289 290 291 293 294 295 296 297 297 298 299 300 300 301 300 300 300 300 300 301 301 301 299 298 298
237 238 239 240 241 241 242 242 243 244 247 249 251 253 256 259 264 268 271 273 276 278 281 284 287 289 290 291 292 293 294 295 297 297 298 299 300 300 300 300 300 301 301 301 301 301 299 299 299
238 238 240 241 243 243 244 243 244 246 248 250 253 255 257 260 263 267 271 273 275 278 280 283 286 287 288 289 290 291 293 294 296 297 298 299 299 299 299 300 300 301 302 302 301 300 300 299 299
238 239 240 242 243 244 245 245 246 246 248 250 253 256 258 260 263 267 269 272 274 276 279 281 284 285 287 288 289 290 292 294 295 297 298 298 298 299 300 301 301 302 303 303 302 301 300 300 299
238 239 241 243 244 245 246 246 248 247 248 250 253 256 259 260 263 266 268 270 272 275 278 280 282 283 285 287 289 290 291 293 294 296 297 298 298 299 300 301 302 302 303 303 302 301 301 300 300
240 241 242 243 245 246 246 246 248 249 249 250 253 256 258 261 263 265 267 269 272 273 276 278 280 282 284 286 288 290 291 293 294 295 297 298 299 300 300 301 302 302 302 302 302 301 301 301 300
240 241 243 244 246 247 247 246 248 251 251 252 253 256 258 260 263 264 266 268 270 272 274 276 278 280 282 284 286 289 290 292 293 294 296 298 299 299 300 301 301 301 301 301 301 301 301 301 300
240 242 244 245 247 248 247 246 247 250 252 253 254 256 258 260 262 263 265 267 269 271 273 275 277 279 281 282 285 287 289 291 293 295 296 297 298 299 300 301 301 301 301 301 302 301 301 300 300
240 242 244 246 247 249 248 247 247 249 252 253 254 256 258 260 262 263 265 266 268 270 272 275 276 278 279 281 284 286 288 290 292 294 294 295 296 298 299 300 301 301 301 301 301 301 301 301 300
241 242 244 246 247 249 250 250 245 249 252 253 254 255 257 259 261 263 264 265 267 269 271 274 276 277 279 281 283 285 287 289 291 292 293 294 295 297 299 299 300 301 301 301 301 301 301 301 300
241 242 244 246 248 249 249 253 247 248 251 253 254 255 257 259 260 262 263 265 267 269 271 273 275 276 278 280 282 283 286 288 290 291 293 294 296 297 298 299 299 300 301 301 301 301 301 301 300
241 243 245 247 249 250 250 253 251 248 251 253 254 255 256 258 260 261 262 264 266 268 270 272 274 275 278 280 281 283 284 286 288 290 292 294 295 296 297 298 299 299 300 300 301 301 301 301 300
240 242 245 247 248 251 251 253 254 250 251 252 253 254 256 258 259 261 262 264 266 268 269 271 273 274 277 278 280 282 283 285 287 289 291 293 295 296 297 298 299 299 300 300 301 301 301 300 300
241 242 245 248 251 253 252 252 252 251 251 251 252 253 255 257 259 261 262 264 266 268 269 270 271 274 276 277 279 280 283 285 287 289 291 293 294 296 297 298 298 299 300 300 301 301 301 300 300
240 241 244 248 251 253 253 253 251 251 251 250 251 252 254 256 259 261 262 264 265 266 267 268 271 273 275 276 278 280 282 285 287 289 290 292 293 295 296 297 298 299 300 300 301 301 301 300 300
239 240 242 245 250 253 254 253 252 251 252 252 252 253 256 257 259 260 262 263 264 265 266 268 269 271 273 275 278 280 282 284 286 287 289 291 293 294 296 297 298 298 299 300 300 301 301 300 300
237 239 242 245 248 252 255 255 253 253 254 253 252 254 257 258 259 260 261 262 263 264 265 267 269 270 273 275 277 279 281 283 285 287 289 291 293 295 296 297 297 298 299 300 301 301 301 300 300
238 239 241 244 247 250 253 255 254 253 253 253 253 255 257 258 259 260 260 260 262 263 264 266 268 270 273 276 278 279 281 283 285 287 289 291 292 294 296 297 297 298 300 301 301 301 300 300 300
Height
5874 5874 5875 5877 5878 5878 5878 5879 5878 5878 5878 5878 5878 5878 5878 5879 5879 5881 5878 5876 5876 5876 5875 5875 5875 5875 5875 5874 5874 5874 5873 5872 5872 5871 5870 5869 5868 5867 5866 5865 5863 5862 5861 5859 5858 5857 5856 5855 5853
5873 5874 5875 5876 5877 5877 5878 5878 5878 5878 5878 5878 5877 5877 5877 5877 5877 5877 5876 5875 5875 5875 5874 5874 5874 5874 5873 5873 5872 5872 5871 5871 5870 5869 5868 5867 5866 5864 5863 5862 5861 5859 5858 5856 5855 5854 5852 5851 5850
5872 5873 5874 5875 5875 5876 5877 5877 5877 5877 5877 5877 5877 5877 5877 5876 5876 5875 5875 5874 5874 5873 5873 5873 5872 5872 5872 5871 5871 5870 5869 5868 5868 5866 5865 5864 5863 5861 5860 5859 5857 5856 5854 5853 5851 5850 5848 5847 5846
5871 5872 5873 5874 5874 5875 5875 5876 5875 5875 5875 5876 5876 5876 5875 5875 5875 5874 5874 5873 5873 5872 5872 5871 5871 5870 5870 5869 5869 5868 5867 5866 5865 5864 5863 5861 5860 5858 5857 5855 5854 5852 5851 5849 5847 5846 5844 5843 5841
5869 5870 5871 5872 5873 5873 5874 5874 5874 5874 5874 5874 5874 5874 5874 5874 5873 5873 5872 5872 5871 5871 5870 5870 5869 5868 5868 5867 5866 5866 5865 5864 5862 5861 5860 5858 5857 5855 5854 5852 5850 5849 5847 5845 5844 5842 5840 5839 5837
5867 5868 5869 5870 5871 5872 5872 5872 5872 5872 5873 5873 5873 5872 5872 5872 5872 5871 5871 5871 5870 5869 5869 5868 5867 5866 5866 5865 5864 5863 5862 5861 5860 5859 5857 5856 5854 5852 5851 5849 5847 5846 5844 5842 5840 5838 5836 5835 5833
5865 5865 5866 5867 5868 5869 5870 5870 5870 5870 5871 5871 5871 5871 5870 5870 5870 5869 5869 5869 5868 5868 5867 5866 5865 5864 5863 5863 5862 5861 5860 5859 5857 5856 5854 5853 5851 5849 5848 5846 5844 5842 5840 5838 5836 5834 5832 5830 5828
5860 5862 5863 5865 5866 5867 5867 5868 5868 5868 5869 5869 5869 5869 5869 5868 5868 5867 5867 5867 5866 5866 5865 5864 5863 5862 5861 5860 5859 5858 5857 5856 5854 5853 5851 5849 5848 5846 5844 5842 5840 5838 5836 5834 5832 5830 5828 5826 5824
5856 5859 5860 5862 5863 5864 5864 5865 5865 5865 5866 5866 5866 5866 5866 5866 5865 5865 5865 5864 5864 5863 5863 5862 5861 5860 5859 5858 5857 5855 5854 5853 5851 5850 5848 5846 5844 5842 5840 5838 5836 5834 5832 5830 5828 5826 5824 5821 5819
5852 5854 5857 5858 5859 5860 5860 5861 5862 5862 5863 5863 5864 5863 5863 5863 5863 5863 5862 5862 5861 5861 5860 5859 5858 5857 5856 5855 5854 5852 5851 5849 5848 5846 5844 5843 5841 5839 5836 5835 5832 5830 5828 5826 5824 5821 5819 5817 5814
5847 5850 5852 5853 5854 5855 5856 5857 5858 5859 5860 5860 5860 5860 5860 5860 5860 5859 5859 5859 5858 5858 5857 5856 5855 5854 5853 5852 5850 5849 5847 5846 5844 5843 5841 5839 5837 5835 5833 5831 5828 5826 5824 5821 5819 5817 5814 5812 5809
5841 5844 5846 5848 5849 5850 5852 5853 5854 5855 5856 5856 5856 5857 5857 5857 5856 5856 5855 5855 5855 5854 5853 5852 5852 5851 5849 5848 5847 5845 5844 5842 5841 5839 5837 5835 5833 5831 5828 5826 5824 5821 5819 5817 5814 5812 5809 5807 5804
5835 5838 5840 5842 5843 5845 5847 5848 5849 5850 5851 5852 5852 5853 5853 5853 5852 5852 5851 5851 5851 5850 5849 5849 5848 5847 5846 5844 5843 5841 5840 5838 5836 5835 5833 5830 5828 5826 5824 5821 5819 5817 5814 5812 5809 5806 5804 5801 5798
5828 5831 5833 5835 5837 5839 5841 5842 5844 5846 5846 5847 5848 5848 5848 5848 5848 5848 5848 5847 5846 5846 5845 5844 5843 5842 5841 5840 5839 5837 5835 5834 5832 5830 5828 5826 5824 5821 5819 5817 5814 5811 5809 5806 5804 5801 5798 5795 5793
5820 5823 5826 5828 5831 5833 5835 5837 5839 5840 5841 5842 5843 5843 5844 5844 5844 5844 5843 5843 5842 5841 5841 5840 5839 5838 5837 5835 5834 5833 5831 5829 5827 5825 5823 5821 5819 5816 5814 5811 5809 5806 5803 5801 5798 5795 5792 5789 5786
5812 5815 5819 5822 5824 5826 5829 5832 5834 5834 5835 5836 5837 5838 5838 5839 5839 5838 5838 5838 5837 5836 5836 5835 5834 5833 5832 5830 5829 5828 5826 5824 5822 5820 5818 5816 5813 5811 5808 5806 5803 5800 5797 5795 5792 5789 5786 5783 5780
5804 5808 5812 5815 5817 5819 5821 5825 5826 5827 5829 5830 5831 5831 5832 5833 5833 5833 5833 5832 5832 5831 5830 5830 5829 5828 5826 5825 5824 5822 5820 5819 5817 5814 5812 5810 5807 5805 5803 5800 5797 5794 5791 5788 5785 5782 5779 5776 5773
5798 5801 5804 5806 5809 5811 5813 5817 5819 5820 5822 5824 5824 5825 5826 5827 5827 5827 5827 5827 5826 5826 5825 5824 5823 5822 5821 5820 5818 5817 5815 5813 5811 5809 5806 5804 5802 5799 5797 5794 5791 5788 5785 5782 5779 5776 5773 5770 5766
5789 5791 5795 5798 5800 5802 5805 5809 5811 5811 5814 5816 5818 5818 5820 5820 5821 5821 5821 5820 5820 5820 5819 5818 5817 5816 5815 5814 5812 5811 5809 5807 5805 5803 5800 5798 5796 5793 5790 5787 5785 5782 5778 5775 5772 5769 5766 5762 5759
5779 5783 5787 5790 5791 5793 5797 5800 5803 5804 5806 5809 5810 5811 5813 5814 5814 5814 5814 5814 5814 5813 5813 5812 5811 5810 5809 5808 5806 5804 5802 5801 5799 5796 5794 5792 5789 5787 5784 5781 5778 5775 5772 5769 5765 5762 5758 5755 5751
5770 5775 5779 5781 5782 5784 5787 5791 5795 5796 5798 5800 5802 5804 5805 5806 5807 5807 5807 5807 5807 5806 5806 5805 5804 5803 5802 5801 5799 5798 5796 5794 5792 5790 5787 5785 5782 5780 5777 5774 5771 5768 5765 5761 5758 5754 5751 5748 5744
5762 5767 5769 5771 5773 5775 5778 5780 5787 5788 5790 5792 5795 5796 5797 5799 5799 5800 5800 5800 5800 5800 5799 5798 5797 5796 5795 5794 5792 5791 5789 5787 5785 5783 5781 5778 5776 5773 5770 5767 5764 5761 5757 5754 5750 5747 5743 5739 5736
5754 5757 5760 5762 5763 5766 5768 5769 5778 5780 5782 5784 5787 5788 5790 5791 5792 5792 5792 5792 5792 5792 5792 5791 5790 5789 5788 5787 5785 5784 5782 5780 5778 5776 5774 5771 5769 5766 5763 5760 5757 5753 5750 5746 5743 5739 5735 5731 5727
5744 5748 5750 5752 5753 5755 5760 5761 5766 5772 5774 5777 5778 5780 5781 5782 5783 5784 5784 5784 5784 5784 5784 5783 5782 5781 5780 5779 5778 5776 5775 5773 5771 5768 5766 5764 5761 5758 5755 5752 5749 5745 5742 5738 5734 5731 5727 5723 5718
5734 5739 5741 5742 5743 5746 5752 5751 5756 5764 5766 5768 5769 5771 5772 5773 5774 5775 5775 5775 5776 5776 5776 5775 5775 5774 5773 5772 5770 5769 5767 5765 5763 5761 5759 5756 5753 5751 5747 5744 5741 5737 5733 5730 5726 5722 5718 5714 5709
5725 5729 5732 5734 5736 5738 5741 5742 5749 5754 5757 5758 5760 5762 5763 5764 5765 5766 5767 5767 5767 5768 5768 5767 5767 5766 5765 5764 5763 5761 5759 5757 5755 5753 5751 5748 5745 5742 5739 5736 5732 5729 5725 5721 5717 5713 5709 5704 5700
5715 5718 5723 5725 5725 5728 5729 5735 5741 5744 5747 5749 5751 5753 5754 5756 5756 5757 5758 5759 5759 5759 5759 5759 5759 5758 5757 5756 5755 5753 5752 5750 5748 5745 5743 5740 5737 5734 5731 5727 5724 5720 5716 5712 5708 5704 5699 5695 5690
5705 5709 5712 5714 5715 5717 5720 5725 5732 5736 5738 5740 5742 5744 5745 5746 5747 5748 5749 5750 5750 5750 5750 5750 5750 5749 5749 5748 5746 5745 5743 5742 5739 5737 5734 5732 5729 5725 5722 5719 5715 5711 5707 5703 5699 5694 5690 5685 5680
5695 5699 5701 5704 5707 5709 5711 5719 5724 5727 5728 5730 5732 5733 5735 5737 5738 5738 5739 5740 5741 5741 5741 5741 5741 5741 5740 5739 5738 5736 5735 5733 5731 5728 5726 5723 5720 5717 5713 5709 5706 5702 5698 5693 5689 5684 5679 5675 5670
5683 5688 5692 5695 5697 5700 5703 5710 5713 5717 5718 5720 5721 5723 5724 5726 5728 5729 5730 5730 5731 5732 5732 5732 5732 5732 5731 5730 5729 5728 5726 5724 5722 5720 5717 5714 5711 5707 5704 5700 5696 5692 5688 5683 5679 5674 5669 5664 5659